Location: Unspecified
(0.0000°N, 0.0000°E)
Time: 19:25:35
(UTC+00:00)

LightSail 2 - Pass Details

Date: 24 November 2019
Orbit: 696 x 730 km, 24.0° (Epoch: 08 December)

Event Time Altitude Azimuth Distance (km) Brightness Sun altitude
Exits shadow 03:20:12 13° 50° (NE) 2,019 7.7 -33.9°
Drops below altitude 10° 03:21:04 10° 59° (ENE) 2,190 8.0 -33.7°
Sets 03:24:26 0° 80° (E) 3,119 9.2 -33.0°
